Погода в Смоленске

Хотите узнать прогноз погоды в Смоленске? Тогда Вам сюда: Погода в Смоленске

Поиск расширенной информации на нашем сайте:

Полезная информация:

Новости сайта



02.01.2020
Опубликован Долгосрочный прогноз погоды по городам России и ближнего зарубежья на январь 2020 года.
Карты: Прогноз на январь и февраль 2020 года, Сравнение прогнозируемой аномалии приземной температуры воздуха на январь 2020 года по разным моделям.




Погода в Смоленске - сегодня

Время (UTC), дата Ветер
(°,м/с) 
Видим.   Явления Облачность Т
(°С)
Тd
(°С)
f(%) Тe
(°С)
Pmin
(гПа)
dP
(гПа)
Po
(мм)
O2
(г/м3)
Тmin Tmax R s Состояние
почвы
06 05.04.20 300 (СЗ) 10 км  {ливн. осадки}  ясно 
+1.6 -2.7 73 1029  2.4  749  300  -1.7    0.0     
09 05.04.20 310 (СЗ) 20000 м    3/3 600 м 
[Cu hum]
+5.6 -10.5 30 +5  1029.4  0.8  750  297           
12 05.04.20 310 (СЗ) 3{13}  10 км  {ливн. осадки}  9/9 600 м кучево-дожд. 
[Cb cap]
+6 -9.8 31 +5  1029.1  -0.2  750  296           
15 05.04.20 310 (СЗ) 5-12{13}  10 км  {ливн. осадки}  8/8 600 м 
[Sc diur, vesp]
+6.2 -12 26 +4  1029.6  0.5  750  297      0.3     
18 05.04.20 тихо () {12}  10 км  {ливн. осадки}  3/3 600 м 
[Sc]
+2.1 -9.7 41 +2  1031.2  1.1  751  301    +7.3  0.3     
21 05.04.20 тихо ()   10 км    ясно 
-1.3 -8 60 -1  1032.6  752  305           
00 06.04.20 тихо ()   10 км    ясно 
-2.5 -7.5 68 -3  1034.3  1.4  753  307           
03 06.04.20 тихо ()   10 км    ясно 
-3 -8.6 65 -3  1035.2  0.9  753  308  -3.7         
06 06.04.20 190 (Ю) 10 км    3/0 верхняя 
[Ci fib]
+3.5 -8.6 41 +4  1035.3  0.8  754  301  -4.2         
09 06.04.20 260 (З) 10 км    10/10 600 м 
[Sc]
+4.6 -9.7 35 +5  1035.7  0.5  754  300           
12 06.04.20 300 (СЗ) 10 км  в посл. час дождь  10/10 600 м 
[Sc]
+5.6 -3.8 51 +6  1034.8  -0.8  754  298           
15 06.04.20 320 (СЗ) 10 км    10/10 600 м 
[Sc]
+8.4 +0.8 59 +8  1033.7  -0.7  753  294      0.0     
18 06.04.20 тихо ()   10 км    4/0 средняя 
[Ac trans]
+4.3 +0.6 77 +4  1034.4  0.2  753  299    +8.5  0.0     
21 06.04.20 тихо ()   10 км    ясно 
+2.1 +0.3 88 +2  1035.1  0.5  754  301           
00 07.04.20 090 (В) 4000 м  дымка  4/0 средняя 
[Ac trans]
+0.3 -0.4 95 +1  1036.2  0.8  754  304           
03 07.04.20 220 (ЮЗ) 4000 м  дымка  ясно 
-1.7 -2.1 97 -1  1036.7  0.3  755  306  -1.7         
06 07.04.20 170 (Ю) 10 км    ясно 
+6.5 +1 68 +7  1035.7  754  297  -2         
09 07.04.20 250 (З) 10 км    4/4 600 м 
[Cu hum]
+14.3 -3.3 29 +15  1033.4  -1.5  753  289           
12 07.04.20 240 (ЮЗ) 10 км    3/0 средняя 
[Ac As]
+15.8 -4.6 24 +16  1031.2  -2  752  287           
15 07.04.20 240 (ЮЗ) 10 км    ясно 
+15.6 -5.6 23 +16  1028.4  -2.8  750  286           
18 07.04.20 210 (ЮЗ) 10 км    ясно 
+9.8 -5.9 33 +11  1026.6  -2.3  748  292    +16.3       
21 07.04.20 210 (ЮЗ) 10 км    ясно 
+7.8 -5.3 39 +8  1024.3  -2.4  746  293           
00 08.04.20 260 (З) 10 км    ясно 
+6.6 -6.8 38 +8  1020.9  -3.4  744  293           
03 08.04.20 280 (З) 10 км    ясно 
+6.5 -2.7 52 +6  1019.6  -3.4  743  293  +6.3         
06 08.04.20 310 (СЗ) 5-11{11}  10 км    8/8 1000 м 
[Sc]
+9 +1.5 59 +8  1020.4  743  290  +6.3         
Время (UTC), дата Ветер
(°,м/с) 
Видим.   Явления Облачность Т
(°С)
Тd
(°С)
f(%) Тe
(°С)
Pmin
(гПа)
dP
(гПа)
Po
(мм)
O2
(г/м3)
Тmin Tmax R s Состояние
почвы

Для получения пояснительной информации подведите курсор к названию столбца.

ПОГОДА в Смоленске - архив

Всё, что Вы хотите узнать о погоде в Смоленске - удобно и подробно!

Выберите нужную дату (начиная с 1 января 2019* года) и нажмите кнопку "Найти".
Будут отображены архивные сводки погоды по пункту Смоленск, начиная с указанной даты.


Отображать данные в формате CSV (для использования в таблицах Excel)


Внимание! Наш архив погоды предназначен исключительно для личного некоммерческого использования в познавательных целях. Если Вам необходимы официальные справки о состоянии погоды (для производственных, юридических, коммерческих и т.п. целей), обращайтесь в органы Росгидромета.

*Примечание: данная дата относится к архиву по метеостанциям СССР (Россия, СНГ, Балтия).
Архив по метеостанциям Зарубежной Европы и Азии (кроме Китая) хранится 10 дней, по другим регионам земного шара (Китай, Африка, Америка, Австралия, Океания) - 1 день.

Смоленск - район местоположения метеостанции


Название, широта, долгота, высота метеостанции:
Смоленск 54.8°ш. 32.1°д. 239 м над ур. моря [Российская Федерация]

Дополнительная информация

В oтличие oт бoльшинства пoгoдных сайтoв мы публикуем пoдрoбную метеoинфoрмацию в детальнoм прoфессиoнальнoм фoрмате.

Характеристики температуры и влажнoсти вoздуха измеряются на высoте 2 м в тени вдали oт зданий и деревьев.
Скoрoсть ветра измеряется на высoте 10 м (на урoвне рoста челoвека скoрoсть ветра ниже в 1.5-2 раза). Если метеoстанция нахoдится в гoрoде или в лесу, тo скoрoсть ветра занижена на 2-4 м/с пo сравнению с oткрытым местoм. Скoрoсть ветра над акватoриями крупных рек и oзёр, а также на вершинах хoлмoв на 2-5 м/с выше, чем в oбычных услoвиях.
Атмoсфернoе давление в разных тoчках местнoсти мoжет значительнo oтличаться oт давления на метеoстанции, в зависимoсти oт услoвий рельефа (при пoдъёме на 10 м давление пoнижается примернo на 1 мм рт.ст.).